,,PA_Meas_PMT16A,,PR_Meas_QMR101_102,,RH_Meas_QMH101,,SR_Meas_QMS101,,TA_Meas_QMH101,,GenWind,,GenWind,
time,status,PA,status,PR,status,RH,status,SR,status,TA,status,DirAvg,status,SpdAvg,
2015-04-10, 00:00:04,VALID,918.308,VALID,0,VALID,97.4577,VALID,0,VALID,19.8588,VALID,131,VALID,1.88672,
2015-04-10, 00:01:04,VALID,918.331,VALID,0,VALID,97.4654,VALID,0,VALID,19.8393,VALID,140,VALID,2.50664,
2015-04-10, 00:02:04,VALID,918.298,VALID,0,VALID,97.4501,VALID,0,VALID,19.8198,VALID,138,VALID,2.92578,
2015-04-10, 00:03:04,VALID,918.271,VALID,0,VALID,97.4806,VALID,0,VALID,19.8198,VALID,147,VALID,1.73125,
2015-04-10, 00:04:04,VALID,918.243,VALID,0,VALID,97.473,VALID,0,VALID,19.8003,VALID,139,VALID,2.11484,
2015-04-10, 00:05:04,VALID,918.221,VALID,0,VALID,97.4882,VALID,0,VALID,19.7808,VALID,140,VALID,1.59883,
2015-04-10, 00:06:04,VALID,918.21,VALID,0,VALID,97.5187,VALID,0,VALID,19.7808,VALID,135,VALID,1.73789,
2015-04-10, 00:07:04,VALID,918.228,VALID,0,VALID,97.5264,VALID,0,VALID,19.7613,VALID,139,VALID,1.68672,
2015-04-10, 00:08:04,VALID,918.237,VALID,0,VALID,97.5797,VALID,0,VALID,19.7418,VALID,142,VALID,2.21211,
2015-04-10, 00:09:04,VALID,918.237,VALID,0,VALID,97.5873,VALID,0,VALID,19.7418,VALID,141,VALID,1.79727,
2015-04-10, 00:10:04,VALID,918.222,VALID,0,VALID,97.6178,VALID,0,VALID,19.7433,VALID,128,VALID,1.83477,
2015-04-10, 00:11:04,VALID,918.213,VALID,0,VALID,97.6483,VALID,0,VALID,19.7013,VALID,134,VALID,1.9418,
2015-04-10, 00:12:04,VALID,918.235,VALID,0,VALID,97.6636,VALID,0,VALID,19.7028,VALID,134,VALID,2.66289,
2015-04-10, 00:13:04,VALID,918.199,VALID,0,VALID,97.7093,VALID,0,VALID,19.6833,VALID,131,VALID,2.15039,
2015-04-10, 00:14:04,VALID,918.197,VALID,0,VALID,97.7169,VALID,0,VALID,19.7253,VALID,135,VALID,2.37461,
2015-04-10, 00:15:04,VALID,918.178,VALID,0,VALID,97.7322,VALID,0,VALID,19.7043,VALID,137,VALID,2.34219,
2015-04-10, 00:16:04,VALID,918.172,VALID,0,VALID,97.7398,VALID,0,VALID,19.7043,VALID,146,VALID,2.1957,
2015-04-10, 00:17:04,VALID,918.126,VALID,0,VALID,97.7551,VALID,0,VALID,19.7043,VALID,136,VALID,2.78594,
2015-04-10, 00:18:04,VALID,918.119,VALID,0,VALID,97.7627,VALID,0,VALID,19.7238,VALID,138,VALID,2.9207,
2015-04-10, 00:19:04,VALID,918.15,VALID,0,VALID,97.7627,VALID,0,VALID,19.7433,VALID,137,VALID,2.0543,
2015-04-10, 00:20:04,VALID,918.129,VALID,0,VALID,97.7398,VALID,0,VALID,19.7433,VALID,141,VALID,1.88164,
2015-04-10, 00:21:04,VALID,918.086,VALID,0,VALID,97.7322,VALID,0,VALID,19.7628,VALID,133,VALID,1.86328,
2015-04-10, 00:22:04,VALID,918.078,VALID,0,VALID,97.7017,VALID,0,VALID,19.7628,VALID,143,VALID,2.4207,
2015-04-10, 00:23:04,VALID,918.063,VALID,0,VALID,97.6788,VALID,0,VALID,19.7808,VALID,146,VALID,2.46367,
2015-04-10, 00:24:04,VALID,918.085,VALID,0,VALID,97.6483,VALID,0,VALID,19.8198,VALID,137,VALID,2.33906,
2015-04-10, 00:25:04,VALID,918.072,VALID,0,VALID,97.6178,VALID,0,VALID,19.8393,VALID,124,VALID,2.04492,
2015-04-10, 00:26:04,VALID,918.086,VALID,0,VALID,97.5569,VALID,0,VALID,19.8603,VALID,135,VALID,1.86914,
2015-04-10, 00:27:04,VALID,918.054,VALID,0,VALID,97.534,VALID,0,VALID,19.8603,VALID,138,VALID,2.00625,
2015-04-10, 00:28:04,VALID,918.067,VALID,0,VALID,97.4882,VALID,0,VALID,19.8603,VALID,149,VALID,1.88398,
2015-04-10, 00:29:04,VALID,918.061,VALID,0,VALID,97.4806,VALID,0,VALID,19.8393,VALID,139,VALID,1.80742,
2015-04-10, 00:30:04,VALID,918.055,VALID,0,VALID,97.4501,VALID,0,VALID,19.8603,VALID,157,VALID,2.3,
2015-04-10, 00:31:04,VALID,918.032,VALID,0,VALID,97.4577,VALID,0,VALID,19.8588,VALID,168,VALID,1.39336,
2015-04-10, 00:32:04,VALID,917.986,VALID,0,VALID,97.4273,VALID,0,VALID,19.8588,VALID,147,VALID,1.81875,
2015-04-10, 00:33:04,VALID,917.991,VALID,0,VALID,97.3968,VALID,0,VALID,19.8588,VALID,146,VALID,2.09063,
2015-04-10, 00:34:04,VALID,918.003,VALID,0,VALID,97.3663,VALID,0,VALID,19.8783,VALID,141,VALID,2.67383,
2015-04-10, 00:35:04,VALID,918.018,VALID,0,VALID,97.3358,VALID,0,VALID,19.9188,VALID,140,VALID,2.04531,
2015-04-10, 00:36:04,VALID,918.02,VALID,0,VALID,97.2595,VALID,0,VALID,19.8978,VALID,140,VALID,1.78711,
2015-04-10, 00:37:04,VALID,918.003,VALID,0,VALID,97.2519,VALID,0,VALID,19.8783,VALID,134,VALID,1.86211,
2015-04-10, 00:38:04,VALID,917.982,VALID,0,VALID,97.2595,VALID,0,VALID,19.8588,VALID,136,VALID,1.48828,
2015-04-10, 00:39:04,VALID,917.964,VALID,0,VALID,97.2519,VALID,0,VALID,19.8588,VALID,143,VALID,2.17031,
2015-04-10, 00:40:04,VALID,917.99,VALID,0,VALID,97.2672,VALID,0,VALID,19.8588,VALID,139,VALID,1.96953,
2015-04-10, 00:41:04,VALID,917.926,VALID,0,VALID,97.2977,VALID,0,VALID,19.8588,VALID,144,VALID,1.62461,
2015-04-10, 00:42:04,VALID,917.88,VALID,0,VALID,97.3129,VALID,0,VALID,19.8393,VALID,145,VALID,2.01406,
2015-04-10, 00:43:04,VALID,917.863,VALID,0,VALID,97.3281,VALID,0,VALID,19.8588,VALID,136,VALID,1.75,
2015-04-10, 00:44:04,VALID,917.89,VALID,0,VALID,97.3358,VALID,0,VALID,19.8603,VALID,141,VALID,1.78516,
2015-04-10, 00:45:04,VALID,917.84,VALID,0,VALID,97.3205,VALID,0,VALID,19.8393,VALID,132,VALID,2.11914,
2015-04-10, 00:46:04,VALID,917.822,VALID,0,VALID,97.3434,VALID,0,VALID,19.8588,VALID,132,VALID,2.60117,
2015-04-10, 00:47:04,VALID,917.809,VALID,0,VALID,97.3205,VALID,0,VALID,19.8993,VALID,145,VALID,1.86523,
2015-04-10, 00:48:04,VALID,917.806,VALID,0,VALID,97.2595,VALID,0,VALID,19.8978,VALID,145,VALID,1.80781,
2015-04-10, 00:49:04,VALID,917.757,VALID,0,VALID,97.2062,VALID,0,VALID,19.9173,VALID,141,VALID,1.85195,
2015-04-10, 00:50:04,VALID,917.756,VALID,0,VALID,97.1452,VALID,0,VALID,19.9368,VALID,139,VALID,2.57734,
2015-04-10, 00:51:04,VALID,917.749,VALID,0,VALID,97.0918,VALID,0,VALID,19.9368,VALID,152,VALID,1.33828,
2015-04-10, 00:52:04,VALID,917.738,VALID,0,VALID,97.0461,VALID,0,VALID,19.9368,VALID,141,VALID,2.05078,
2015-04-10, 00:53:04,VALID,917.742,VALID,0,VALID,97.0308,VALID,0,VALID,19.9383,VALID,149,VALID,1.92031,
2015-04-10, 00:54:04,VALID,917.716,VALID,0,VALID,97.0003,VALID,0,VALID,19.9173,VALID,159,VALID,1.37227,
2015-04-10, 00:55:04,VALID,917.768,VALID,0,VALID,97.0232,VALID,0,VALID,19.8978,VALID,165,VALID,1.52695,
2015-04-10, 00:56:04,VALID,917.777,VALID,0,VALID,97.0537,VALID,0,VALID,19.8978,VALID,151,VALID,1.59531,
2015-04-10, 00:57:04,VALID,917.779,VALID,0,VALID,97.0842,VALID,0,VALID,19.8783,VALID,149,VALID,1.22305,
2015-04-10, 00:58:04,VALID,917.762,VALID,0,VALID,97.1147,VALID,0,VALID,19.8978,VALID,159,VALID,2.22031,
2015-04-10, 00:59:04,VALID,917.772,VALID,0,VALID,97.1299,VALID,0,VALID,19.8978,VALID,144,VALID,1.63633,
2015-04-10, 01:00:04,VALID,917.755,VALID,0,VALID,97.1299,VALID,0,VALID,19.8978,VALID,150,VALID,1.99453,
2015-04-10, 01:01:04,VALID,917.729,VALID,0,VALID,97.1147,VALID,0,VALID,19.9173,VALID,166,VALID,1.97109,
2015-04-10, 01:02:04,VALID,917.756,VALID,0,VALID,97.069,VALID,0,VALID,19.9368,VALID,148,VALID,2.66445,
2015-04-10, 01:03:04,VALID,917.749,VALID,0,VALID,97.0003,VALID,0,VALID,19.9743,VALID,150,VALID,2.04063,
2015-04-10, 01:04:04,VALID,917.771,VALID,0,VALID,96.886,VALID,0,VALID,19.9953,VALID,157,VALID,1.23789,
2015-04-10, 01:05:04,VALID,917.724,VALID,0,VALID,96.7869,VALID,0,VALID,20.0163,VALID,147,VALID,2.58555,
2015-04-10, 01:06:04,VALID,917.722,VALID,0,VALID,96.6573,VALID,0,VALID,20.0358,VALID,169,VALID,1.84883,
2015-04-10, 01:07:04,VALID,917.721,VALID,0,VALID,96.6115,VALID,0,VALID,20.0358,VALID,145,VALID,1.33125,
2015-04-10, 01:08:04,VALID,917.74,VALID,0,VALID,96.5277,VALID,0,VALID,20.0569,VALID,141,VALID,2.11016,
2015-04-10, 01:09:04,VALID,917.738,VALID,0,VALID,96.5048,VALID,0,VALID,19.9743,VALID,146,VALID,1.61719,
2015-04-10, 01:10:04,VALID,917.711,VALID,0,VALID,96.4743,VALID,0,VALID,19.9938,VALID,147,VALID,1.91094,
2015-04-10, 01:11:04,VALID,917.718,VALID,0,VALID,96.4286,VALID,0,VALID,20.0148,VALID,137,VALID,2.43555,
2015-04-10, 01:12:04,VALID,917.72,VALID,0,VALID,96.3981,VALID,0,VALID,20.0764,VALID,143,VALID,2.38242,
2015-04-10, 01:13:04,VALID,917.722,VALID,0,VALID,96.3676,VALID,0,VALID,20.0148,VALID,142,VALID,2.50977,
2015-04-10, 01:14:04,VALID,917.69,VALID,0,VALID,96.3676,VALID,0.107441,VALID,20.0148,VALID,144,VALID,1.57852,
2015-04-10, 01:15:04,VALID,917.685,VALID,0,VALID,96.3829,VALID,0,VALID,19.9938,VALID,132,VALID,2.5043,
2015-04-10, 01:16:04,VALID,917.724,VALID,0,VALID,96.3905,VALID,0,VALID,20.0148,VALID,135,VALID,0.941016,
2015-04-10, 01:17:04,VALID,917.69,VALID,0,VALID,96.4057,VALID,0.107441,VALID,20.0358,VALID,145,VALID,2.34961,
2015-04-10, 01:18:04,VALID,917.681,VALID,0,VALID,96.3829,VALID,0,VALID,20.0133,VALID,141,VALID,2.26914,
2015-04-10, 01:19:04,VALID,917.688,VALID,0,VALID,96.3295,VALID,0,VALID,20.0553,VALID,136,VALID,1.85078,
2015-04-10, 01:20:04,VALID,917.668,VALID,0,VALID,96.3066,VALID,0,VALID,20.0343,VALID,145,VALID,1.57813,
2015-04-10, 01:21:04,VALID,917.689,VALID,0,VALID,96.3371,VALID,0,VALID,20.0148,VALID,126,VALID,1.92813,
2015-04-10, 01:22:04,VALID,917.685,VALID,0,VALID,96.3676,VALID,0.107441,VALID,19.9743,VALID,117,VALID,2.35977,
2015-04-10, 01:23:04,VALID,917.671,VALID,0,VALID,96.4286,VALID,0,VALID,19.9953,VALID,123,VALID,1.80625,
2015-04-10, 01:24:04,VALID,917.658,VALID,0,VALID,96.4896,VALID,0,VALID,19.9953,VALID,125,VALID,1.7418,
2015-04-10, 01:25:04,VALID,917.631,VALID,0,VALID,96.5658,VALID,0,VALID,19.9968,VALID,125,VALID,2.2207,
2015-04-10, 01:26:04,VALID,917.64,VALID,0,VALID,96.6573,VALID,0,VALID,19.9368,VALID,126,VALID,2.03672,
2015-04-10, 01:27:04,VALID,917.623,VALID,0,VALID,96.7488,VALID,0,VALID,19.9173,VALID,126,VALID,2.48945,
2015-04-10, 01:28:04,VALID,917.586,VALID,0,VALID,96.8403,VALID,0,VALID,19.9173,VALID,129,VALID,1.82617,
2015-04-10, 01:29:04,VALID,917.596,VALID,0,VALID,96.9165,VALID,0.107441,VALID,19.8558,VALID,125,VALID,1.69883,
2015-04-10, 01:30:04,VALID,917.572,VALID,0,VALID,96.9698,VALID,0,VALID,19.8573,VALID,105,VALID,2.14961,
2015-04-10, 01:31:04,VALID,917.565,VALID,0,VALID,97.0537,VALID,0,VALID,19.8798,VALID,132,VALID,2.24609,
2015-04-10, 07:02:04,VALID,917.908,VALID,0,VALID,94.8429,VALID,94.4408,VALID,20.2879,VALID,104,VALID,1.42109,
2015-04-10, 07:03:04,VALID,917.946,VALID,0,VALID,94.8582,VALID,82.7297,VALID,20.3464,VALID,119,VALID,1.25625,
2015-04-10, 07:04:04,VALID,917.916,VALID,0,VALID,94.7057,VALID,73.5972,VALID,20.3659,VALID,122,VALID,1.19062,
2015-04-10, 07:05:04,VALID,917.938,VALID,0,VALID,94.5685,VALID,67.9028,VALID,20.4454,VALID,120,VALID,0,
2015-04-10, 07:06:04,VALID,917.941,VALID,0,VALID,94.3931,VALID,66.6135,VALID,20.504,VALID,135,VALID,0,
2015-04-10, 07:07:04,VALID,917.962,VALID,0,VALID,94.1797,VALID,66.1837,VALID,20.5024,VALID,127,VALID,1.41055,
2015-04-10, 07:08:04,VALID,917.981,VALID,0,VALID,94.0806,VALID,68.44,VALID,20.5609,VALID,135,VALID,0.0589844,
2015-04-10, 07:09:04,VALID,918.004,VALID,0,VALID,93.7909,VALID,70.1591,VALID,20.621,VALID,134,VALID,0,
2015-04-10, 07:10:04,VALID,918.061,VALID,0,VALID,93.7451,VALID,72.2005,VALID,20.6194,VALID,135,VALID,0,
2015-04-10, 07:11:04,VALID,918.086,VALID,0,VALID,93.1658,VALID,73.9195,VALID,20.6795,VALID,121,VALID,0,
2015-04-10, 07:12:04,VALID,918.105,VALID,0,VALID,93.0133,VALID,73.06,VALID,20.7185,VALID,118,VALID,0,
2015-04-10, 07:13:04,VALID,918.108,VALID,0,VALID,92.9447,VALID,69.0847,VALID,20.717,VALID,118,VALID,0,
2015-04-10, 07:14:04,VALID,918.129,VALID,0,VALID,92.9371,VALID,63.2828,VALID,20.7365,VALID,105,VALID,0,
2015-04-10, 07:15:04,VALID,918.13,VALID,0,VALID,93.1505,VALID,59.2001,VALID,20.7154,VALID,129,VALID,0,
2015-04-10, 07:16:04,VALID,918.078,VALID,0,VALID,92.655,VALID,59.0926,VALID,20.717,VALID,81,VALID,0,
2015-04-10, 07:17:04,VALID,918.132,VALID,0,VALID,92.5254,VALID,60.4894,VALID,20.7365,VALID,79,VALID,0.00195313,
2015-04-10, 07:18:04,VALID,918.122,VALID,0,VALID,93.5317,VALID,62.6382,VALID,20.717,VALID,68,VALID,0,
2015-04-10, 07:19:04,VALID,918.174,VALID,0,VALID,93.4859,VALID,65.4317,VALID,20.6975,VALID,87,VALID,1.42266,
2015-04-10, 07:20:04,VALID,918.119,VALID,0,VALID,93.7756,VALID,66.1837,VALID,20.678,VALID,71,VALID,1.36289,
2015-04-10, 07:21:04,VALID,918.165,VALID,0,VALID,93.9662,VALID,68.5475,VALID,20.66,VALID,55,VALID,0.929688,
2015-04-10, 07:22:04,VALID,918.155,VALID,0,VALID,94.1873,VALID,116.466,VALID,20.621,VALID,72,VALID,0.408984,
2015-04-10, 07:23:04,VALID,918.163,VALID,0,VALID,94.4846,VALID,68.2251,VALID,20.5984,VALID,70,VALID,0,
2015-04-10, 07:24:04,VALID,918.199,VALID,0,VALID,94.6218,VALID,66.5061,VALID,20.5789,VALID,70,VALID,0,
2015-04-10, 07:25:04,VALID,918.196,VALID,0,VALID,94.7514,VALID,61.134,VALID,20.5999,VALID,63,VALID,0,
2015-04-10, 07:26:04,VALID,918.223,VALID,0,VALID,94.7133,VALID,56.514,VALID,20.5804,VALID,68,VALID,0,
2015-04-10, 07:27:04,VALID,918.254,VALID,0,VALID,94.5685,VALID,64.1424,VALID,20.5609,VALID,62,VALID,0.339844,
2015-04-10, 07:28:04,VALID,918.244,VALID,0,VALID,94.5227,VALID,60.8117,VALID,20.5204,VALID,75,VALID,0.919141,
2015-04-10, 07:29:04,VALID,918.262,VALID,0,VALID,94.5685,VALID,57.9108,VALID,20.5625,VALID,81,VALID,0.508203,
2015-04-10, 07:30:04,VALID,918.264,VALID,0,VALID,94.6066,VALID,60.167,VALID,20.5204,VALID,70,VALID,0,
2015-04-10, 07:31:04,VALID,918.268,VALID,0,VALID,94.4617,VALID,144.186,VALID,20.5009,VALID,100,VALID,0,
2015-04-10, 07:32:04,VALID,918.295,VALID,0,VALID,94.3703,VALID,64.1424,VALID,20.5414,VALID,87,VALID,0.1125,
2015-04-10, 07:33:04,VALID,918.321,VALID,0,VALID,94.3626,VALID,71.5558,VALID,20.6015,VALID,105,VALID,0,
2015-04-10, 07:34:04,VALID,918.305,VALID,0,VALID,94.4465,VALID,74.3493,VALID,20.5789,VALID,63,VALID,0.246094,
2015-04-10, 07:35:04,VALID,918.343,VALID,0,VALID,94.3931,VALID,77.2502,VALID,20.5789,VALID,78,VALID,0.0589844,
2015-04-10, 07:36:04,VALID,918.37,VALID,0,VALID,94.5075,VALID,85.3083,VALID,20.5999,VALID,104,VALID,0.180078,
2015-04-10, 07:37:04,VALID,918.404,VALID,0,VALID,94.6828,VALID,183.939,VALID,20.5984,VALID,106,VALID,0.00273437,
2015-04-10, 07:38:04,VALID,918.376,VALID,0,VALID,94.8124,VALID,188.022,VALID,20.6764,VALID,87,VALID,0,
2015-04-10, 07:39:04,VALID,918.422,VALID,0,VALID,94.82,VALID,138.707,VALID,20.7739,VALID,115,VALID,0,
2015-04-10, 07:40:04,VALID,918.423,VALID,0,VALID,94.4694,VALID,151.814,VALID,20.8714,VALID,112,VALID,0,
2015-04-10, 07:41:04,VALID,918.407,VALID,0,VALID,93.7833,VALID,60.7043,VALID,20.9316,VALID,117,VALID,0.142578,
2015-04-10, 07:42:04,VALID,918.439,VALID,0,VALID,93.6765,VALID,60.3819,VALID,20.9316,VALID,125,VALID,0,
2015-04-10, 07:43:04,VALID,918.435,VALID,0,VALID,93.4936,VALID,61.3489,VALID,20.8714,VALID,126,VALID,0.183203,
2015-04-10, 07:44:04,VALID,918.429,VALID,0,VALID,93.5164,VALID,62.101,VALID,20.834,VALID,113,VALID,0,
2015-04-10, 07:45:04,VALID,918.463,VALID,0,VALID,93.9586,VALID,61.6712,VALID,20.7755,VALID,112,VALID,0.0203125,
2015-04-10, 07:46:04,VALID,918.48,VALID,0,VALID,94.1949,VALID,75.8535,VALID,20.6959,VALID,127,VALID,0.19375,
2015-04-10, 07:47:04,VALID,918.455,VALID,0,VALID,94.5227,VALID,67.6879,VALID,20.678,VALID,143,VALID,0.0101562,
2015-04-10, 07:48:04,VALID,918.469,VALID,0,VALID,94.6676,VALID,67.7954,VALID,20.6374,VALID,125,VALID,0.592969,
2015-04-10, 07:49:04,VALID,918.472,VALID,0,VALID,94.82,VALID,66.1837,VALID,20.5984,VALID,136,VALID,1.25547,
2015-04-10, 07:50:04,VALID,918.476,VALID,0,VALID,94.8353,VALID,64.2498,VALID,20.5804,VALID,117,VALID,1.78359,
2015-04-10, 07:51:04,VALID,918.485,VALID,0,VALID,94.9268,VALID,65.9689,VALID,20.5594,VALID,138,VALID,1.34531,
2015-04-10, 07:52:04,VALID,918.505,VALID,0,VALID,94.8277,VALID,70.5888,VALID,20.5399,VALID,134,VALID,2.31367,
2015-04-10, 07:53:04,VALID,918.498,VALID,0,VALID,94.7286,VALID,123.235,VALID,20.5999,VALID,137,VALID,1.51484,
2015-04-10, 07:54:04,VALID,918.514,VALID,0,VALID,94.5837,VALID,71.126,VALID,20.6179,VALID,138,VALID,1.63359,
2015-04-10, 07:55:04,VALID,918.489,VALID,0,VALID,94.4008,VALID,69.407,VALID,20.6374,VALID,130,VALID,1.54297,
2015-04-10, 07:56:04,VALID,918.491,VALID,0,VALID,94.355,VALID,74.6716,VALID,20.6585,VALID,132,VALID,1.74609,
2015-04-10, 07:57:04,VALID,918.498,VALID,0,VALID,94.4313,VALID,98.3087,VALID,20.6569,VALID,128,VALID,1.41016,
2015-04-10, 07:58:04,VALID,918.497,VALID,0,VALID,94.3931,VALID,206.072,VALID,20.6748,VALID,137,VALID,1.65156,
2015-04-10, 07:59:04,VALID,918.501,VALID,0,VALID,94.3017,VALID,284.612,VALID,20.7349,VALID,116,VALID,2.24414,
2015-04-10, 08:00:04,VALID,918.499,VALID,0,VALID,94.2102,VALID,87.8869,VALID,20.834,VALID,130,VALID,1.53945,
2015-04-10, 08:01:04,VALID,918.505,VALID,0,VALID,94.1034,VALID,72.6302,VALID,20.873,VALID,136,VALID,1.73789,
2015-04-10, 08:02:04,VALID,918.491,VALID,0,VALID,93.768,VALID,69.407,VALID,20.8519,VALID,139,VALID,1.70977,
2015-04-10, 08:03:04,VALID,918.468,VALID,0,VALID,93.7223,VALID,94.1184,VALID,20.8519,VALID,140,VALID,1.99766,
2015-04-10, 08:04:04,VALID,918.485,VALID,0,VALID,93.7375,VALID,83.9115,VALID,20.8925,VALID,138,VALID,1.98828,
2015-04-10, 08:05:04,VALID,918.463,VALID,0,VALID,93.9586,VALID,86.1678,VALID,20.891,VALID,118,VALID,1.38047,
2015-04-10, 08:06:04,VALID,918.464,VALID,0,VALID,93.7985,VALID,117.97,VALID,20.9511,VALID,127,VALID,2.26211,
2015-04-10, 08:07:04,VALID,918.47,VALID,0,VALID,93.2725,VALID,87.0273,VALID,20.9901,VALID,120,VALID,1.44102,
2015-04-10, 08:08:04,VALID,918.47,VALID,0,VALID,92.9371,VALID,88.4241,VALID,21.0275,VALID,122,VALID,1.63398,
2015-04-10, 08:09:04,VALID,918.487,VALID,0,VALID,92.0527,VALID,89.0687,VALID,21.0665,VALID,121,VALID,1.62148,
2015-04-10, 08:10:04,VALID,918.472,VALID,0,VALID,90.9702,VALID,93.5812,VALID,21.1055,VALID,119,VALID,2.11289,
2015-04-10, 08:11:04,VALID,918.455,VALID,0,VALID,89.1711,VALID,80.5809,VALID,21.164,VALID,120,VALID,2.1125,
2015-04-10, 08:12:04,VALID,918.456,VALID,0,VALID,88.8052,VALID,102.177,VALID,21.2421,VALID,121,VALID,2.05859,
2015-04-10, 08:13:04,VALID,918.397,VALID,0,VALID,88.2792,VALID,187.377,VALID,21.3022,VALID,105,VALID,2.94336,
2015-04-10, 08:14:04,VALID,918.463,VALID,0,VALID,87.7913,VALID,86.0604,VALID,21.3591,VALID,127,VALID,2.01953,
2015-04-10, 08:15:04,VALID,918.456,VALID,0,VALID,87.3415,VALID,88.9613,VALID,21.4193,VALID,126,VALID,2.28125,
2015-04-10, 08:16:04,VALID,918.468,VALID,0,VALID,87.3643,VALID,311.902,VALID,21.4372,VALID,130,VALID,2.24219,
2015-04-10, 08:17:04,VALID,918.444,VALID,0,VALID,87.7074,VALID,329.844,VALID,21.5363,VALID,98,VALID,1.46719,
2015-04-10, 08:18:04,VALID,918.432,VALID,0,VALID,87.1814,VALID,340.266,VALID,21.6323,VALID,136,VALID,2.50742,
2015-04-10, 08:19:04,VALID,918.422,VALID,0,VALID,86.1751,VALID,273.33,VALID,21.7705,VALID,123,VALID,2.69023,
2015-04-10, 08:20:04,VALID,918.413,VALID,0,VALID,86.0531,VALID,334.357,VALID,21.8876,VALID,146,VALID,1.63242,
2015-04-10, 08:21:04,VALID,918.446,VALID,0,VALID,86.0912,VALID,216.816,VALID,22.0242,VALID,154,VALID,0.0652344,
2015-04-10, 08:22:04,VALID,918.46,VALID,0,VALID,85.9159,VALID,358.209,VALID,22.1803,VALID,145,VALID,1.33711,
2015-04-10, 08:23:04,VALID,918.479,VALID,0,VALID,86.2818,VALID,101.102,VALID,22.3347,VALID,104,VALID,1.24688,
2015-04-10, 08:24:04,VALID,918.477,VALID,0,VALID,84.8944,VALID,88.9613,VALID,22.3933,VALID,141,VALID,1.54805,
2015-04-10, 08:25:04,VALID,918.476,VALID,0,VALID,84.7876,VALID,87.672,VALID,22.3559,VALID,115,VALID,1.68555,
2015-04-10, 08:26:04,VALID,918.446,VALID,0,VALID,83.8576,VALID,110.02,VALID,22.2583,VALID,114,VALID,0.862891,
2015-04-10, 08:27:04,VALID,918.495,VALID,0,VALID,85.1841,VALID,230.354,VALID,22.1786,VALID,127,VALID,0.608594,
2015-04-10, 08:28:04,VALID,918.495,VALID,0,VALID,84.78,VALID,135.161,VALID,22.1201,VALID,87,VALID,1.40937,
2015-04-10, 08:29:04,VALID,918.507,VALID,0,VALID,85.6491,VALID,252.272,VALID,22.0615,VALID,118,VALID,1.23867,
2015-04-10, 08:30:04,VALID,918.513,VALID,0,VALID,84.132,VALID,400.541,VALID,22.0615,VALID,119,VALID,1.86289,
2015-04-10, 08:31:04,VALID,918.501,VALID,0,VALID,85.0392,VALID,408.491,VALID,22.1786,VALID,114,VALID,1.47852,
2015-04-10, 08:32:04,VALID,918.556,VALID,0,VALID,84.2159,VALID,231.643,VALID,22.3152,VALID,125,VALID,1.54414,
2015-04-10, 08:33:04,VALID,918.524,VALID,0,VALID,84.6885,VALID,366.159,VALID,22.4518,VALID,122,VALID,2.18086,
2015-04-10, 08:34:04,VALID,918.528,VALID,0,VALID,82.1652,VALID,369.705,VALID,22.4518,VALID,120,VALID,1.9707,
2015-04-10, 08:35:04,VALID,918.505,VALID,0,VALID,83.0266,VALID,397.962,VALID,22.5103,VALID,107,VALID,2.13047,
2015-04-10, 08:36:04,VALID,918.508,VALID,0,VALID,84.4979,VALID,394.846,VALID,22.6079,VALID,128,VALID,0,
2015-04-10, 08:37:04,VALID,918.526,VALID,0,VALID,83.2858,VALID,398.177,VALID,22.7445,VALID,119,VALID,1.74688,
2015-04-10, 08:38:04,VALID,918.569,VALID,0,VALID,84.1778,VALID,406.45,VALID,22.8829,VALID,124,VALID,0.0417969,
2015-04-10, 08:39:04,VALID,918.587,VALID,0,VALID,82.615,VALID,413.541,VALID,22.9983,VALID,128,VALID,1.49531,
2015-04-10, 08:40:04,VALID,918.6,VALID,0,VALID,82.0584,VALID,421.599,VALID,23.0373,VALID,99,VALID,0.487109,
2015-04-10, 08:41:04,VALID,918.582,VALID,0,VALID,80.6939,VALID,431.806,VALID,23.0959,VALID,126,VALID,0.532812,
2015-04-10, 08:42:04,VALID,918.603,VALID,0,VALID,79.5275,VALID,434.062,VALID,23.1739,VALID,149,VALID,0.928516,
2015-04-10, 08:43:04,VALID,918.611,VALID,0,VALID,80.2136,VALID,452.757,VALID,23.2502,VALID,125,VALID,0.698828,
2015-04-10, 08:44:04,VALID,918.631,VALID,0,VALID,79.8553,VALID,448.674,VALID,23.2893,VALID,130,VALID,0.226172,
2015-04-10, 08:45:04,VALID,918.611,VALID,0,VALID,80.5261,VALID,456.41,VALID,23.2893,VALID,148,VALID,1.00742,
2015-04-10, 08:46:04,VALID,918.628,VALID,0,VALID,79.032,VALID,467.262,VALID,23.4064,VALID,153,VALID,0.932813,
2015-04-10, 08:47:04,VALID,918.632,VALID,0,VALID,78.9557,VALID,162.021,VALID,23.4277,VALID,113,VALID,0,
2015-04-10, 08:48:04,VALID,918.644,VALID,0,VALID,79.6418,VALID,360.358,VALID,23.4667,VALID,125,VALID,0,
2015-04-10, 08:49:04,VALID,918.639,VALID,0,VALID,79.9163,VALID,328.77,VALID,23.5253,VALID,122,VALID,0,
2015-04-10, 08:50:04,VALID,918.65,VALID,0,VALID,78.8414,VALID,219.073,VALID,23.543,VALID,142,VALID,0.398047,
2015-04-10, 08:51:04,VALID,918.631,VALID,0,VALID,77.2404,VALID,456.625,VALID,23.4845,VALID,138,VALID,0.256641,
2015-04-10, 08:52:04,VALID,918.701,VALID,0,VALID,79.0167,VALID,462.534,VALID,23.5058,VALID,145,VALID,0.336719,
2015-04-10, 08:53:04,VALID,918.697,VALID,0,VALID,79.1997,VALID,466.187,VALID,23.5235,VALID,133,VALID,0,
2015-04-10, 08:54:04,VALID,918.719,VALID,0,VALID,77.7741,VALID,149.451,VALID,23.5412,VALID,143,VALID,1.47422,
2015-04-10, 08:55:04,VALID,918.684,VALID,0,VALID,79.9544,VALID,461.89,VALID,23.504,VALID,96,VALID,1.15195,
2015-04-10, 08:56:04,VALID,918.7,VALID,0,VALID,79.619,VALID,358.961,VALID,23.5199,VALID,120,VALID,0,
2015-04-10, 08:57:04,VALID,918.723,VALID,0,VALID,78.1171,VALID,507.874,VALID,23.6779,VALID,170,VALID,0,
2015-04-10, 08:58:04,VALID,918.708,VALID,0,VALID,78.727,VALID,133.12,VALID,23.8536,VALID,99,VALID,0,
2015-04-10, 08:59:04,VALID,918.724,VALID,0,VALID,78.9176,VALID,209.833,VALID,23.9139,VALID,114,VALID,0,
2015-04-10, 09:00:04,VALID,918.738,VALID,0,VALID,77.7893,VALID,534.52,VALID,23.834,VALID,145,VALID,0,
2015-04-10, 09:01:04,VALID,918.728,VALID,0,VALID,77.8427,VALID,302.017,VALID,23.8731,VALID,131,VALID,0.110156,
2015-04-10, 09:02:04,VALID,918.771,VALID,0,VALID,78.5364,VALID,175.666,VALID,23.8749,VALID,150,VALID,0.0546875,
2015-04-10, 09:03:04,VALID,918.762,VALID,0,VALID,78.9328,VALID,139.673,VALID,23.7773,VALID,131,VALID,0.596094,
2015-04-10, 09:04:04,VALID,918.769,VALID,0,VALID,78.8566,VALID,392.805,VALID,23.6992,VALID,105,VALID,0.0589844,
2015-04-10, 09:05:04,VALID,918.741,VALID,0,VALID,79.4512,VALID,249.908,VALID,23.6602,VALID,63,VALID,1.74805,
2015-04-10, 09:06:04,VALID,918.75,VALID,0,VALID,76.9279,VALID,130.219,VALID,23.5412,VALID,80,VALID,0.494141,
2015-04-10, 09:07:04,VALID,918.755,VALID,0,VALID,78.7041,VALID,133.442,VALID,23.4241,VALID,97,VALID,1.40313,
2015-04-10, 09:08:04,VALID,918.786,VALID,0,VALID,80.9378,VALID,151.599,VALID,23.3283,VALID,50,VALID,1.04766,
2015-04-10, 09:09:04,VALID,918.78,VALID,0,VALID,79.9544,VALID,559.876,VALID,23.2502,VALID,63,VALID,0.851563,
2015-04-10, 09:10:04,VALID,918.792,VALID,0,VALID,81.3037,VALID,556.33,VALID,23.3478,VALID,40,VALID,0,